CubeBel-2 (EU11S)
1 57175U 23091K   26183.82155544  .00015683  00000-0  54870-3 0  9994
2 57175  97.5041 247.1813 0010702  66.6890 293.5475 15.29555200166691
RS-38S
1 57189U 23091Z   26183.84519358  .00019557  00000-0  54974-3 0  9997
2 57189  97.5083 253.6485 0006893  27.0147 333.1454 15.36531076167097
SONATE-2
1 59112U 24043Q   26183.66855590  .00042661  00000-0  52869-3 0  9997
2 59112  97.5548 335.0278 0007228 145.6904 214.4821 15.59918243130300
GRBBeta
1 60237U 24128C   26183.68340293  .00004303  00000-0  29759-3 0  9995
2 60237  61.9887 161.8933 0038648 137.9860 222.4208 15.06735008108603
Curium One
1 60242U 24128H   26183.63905968  .00008252  00000-0  47303-3 0  9994
2 60242  61.9776 151.0386 0037855 134.1151 226.3070 15.12707896108791
ROBUSTA-3A
1 60243U 24128J   26183.87712984  .00008728  00000-0  51087-3 0  9997
2 60243  61.9855 152.7518 0039598 131.1452 229.3071 15.11839773108795
CatSat
1 60246U 24125J   26183.53896435  .00065621  00000-0  78108-3 0  9992
2 60246  97.2067  36.2577 0021881 126.8317 233.4952 15.60613353109785
HYPERVIEW-1G (RS66S)
1 61772U 24199AP  26183.78900382  .00172334  00000-0  88821-3 0  9995
2 61772  97.2835  64.3457 0007249 173.6337 186.5025 15.80649712137135
AO-123
1 61781U 24199AY  26183.86753545  .00009249  00000-0  26636-3 0  9991
2 61781  97.2976  52.3974 0011983 249.3098 110.6862 15.35901128136337
JINJUSat 1B
1 63210U 25052A   26183.67368060  .00017796  00000-0  54269-3 0  9991
2 63210  97.3985  80.4530 0004640  58.5169 301.6526 15.33995269 72478
NUSHSAT 1
1 63211U 25052B   26183.69191465  .00022953  00000-0  64347-3 0  9996
2 63211  97.3958  81.0914 0004449  64.3100 295.8603 15.36592013 72528
TEVEL2-4
1 63213U 25052D   26183.69844727  .00020076  00000-0  58950-3 0  9991
2 63213  97.3884  80.1195 0004576  74.9021 285.2729 15.35166142 72496
TEVEL2-5
1 63214U 25052E   26183.65553743  .00020032  00000-0  59165-3 0  9994
2 63214  97.3882  80.0199 0004562  76.4185 283.7567 15.34983167 72486
TEVEL2-6
1 63215U 25052F   26183.21188050  .00021402  00000-0  63291-3 0  9999
2 63215  97.3892  79.5600 0004421  78.1313 282.0426 15.34930714 72413
TEVEL2-1
1 63217U 25052H   26183.44186485  .00021382  00000-0  64322-3 0  9999
2 63217  97.3860  79.3967 0004940  84.7539 275.4267 15.34387675 72436
TEVEL2-3
1 63218U 25052J   26183.24029755  .00021076  00000-0  63306-3 0  9995
2 63218  97.3861  79.2186 0004748  86.3332 273.8453 15.34438788 72403
TEVEL2-2
1 63219U 25052K   26183.70293907  .00019229  00000-0  57850-3 0  9993
2 63219  97.3858  79.6604 0004948  84.6363 275.5445 15.34405680 72478
TEVEL2-9
1 63237U 25052AD  26183.43940053  .00019073  00000-0  61120-3 0  9996
2 63237  97.3923  78.7387 0008264  91.0413 269.1776 15.32374933 72360
TEVEL2-7
1 63238U 25052AE  26183.67923457  .00016900  00000-0  54711-3 0  9996
2 63238  97.3925  78.8874 0008367  90.4399 269.7801 15.32073469 72393
TEVEL2-8
1 63239U 25052AF  26183.68763698  .00016814  00000-0  54458-3 0  9999
2 63239  97.3922  78.8721 0008400  90.8583 269.3621 15.32059240 72396
SPIRONE
1 66657U 25274H   26183.32880080  .00002656  00000-0  25676-3 0  9997
2 66657  97.7476 112.4040 0011249 330.8317  29.2274 14.93607902 32480
K-HERO
1 66660U 25274L   26183.73103538  .00002433  00000-0  23318-3 0  9996
2 66660  97.7482 112.9728 0013153 332.9102  27.1430 14.94021234 32558
SNUGLITE-III DURI
1 66661U 25274M   26183.51750550  .00001772  00000-0  17108-3 0  9990
2 66661  97.7481 112.7830 0013873 334.8328  25.2214 14.94056605 32526
SAKHACUBE-CHOLBON
1 67290U 25313AU  26183.64543794  .00010075  00000-0  40413-3 0  9998
2 67290  97.3932 258.4892 0007686 304.5507  55.5005 15.25163834 28332
RS95S (QMR-KWT-2)
1 67291U 25313AV  26183.48782770  .00016312  00000-0  62297-3 0  9994
2 67291  97.3926 258.5418 0007254 301.0765  58.9761 15.26688817 28329
Ten-Koh2
1 68261U 25241B   26183.55714133  .00006104  00000-0  26158-3 0  9992
2 68261  51.6655 246.4762 0005012 188.1262 171.9636 15.24063639 17257
JACK-002
1 68417U 26067B   26183.63711944  .00008077  00000-0  38260-3 0  9996
2 68417  97.4576 142.0385 0001717 156.6535 203.4778 15.19584533 14297
DISCO 2
1 68431U 26067R   26183.39787286  .00009256  00000-0  44147-3 0  9998
2 68431  97.4612 141.7912 0001030  17.2404 342.8865 15.19305533 14253
HADES-SA (SpinnyONE)
1 68446U 26067AG  26183.63335495  .00020791  00000-0  97691-3 0  9991
2 68446  97.4409 141.7031 0007916  42.2557 317.9287 15.19602299 14273
PARUS-6U1
1 68456U 26067AS  26183.41961919  .00007143  00000-0  35762-3 0  9991
2 68456  97.4564 141.5505 0006251  30.6025 329.5572 15.17680466 14245
SAL-E
1 68458U 26067AU  26183.61013215  .00008565  00000-0  42437-3 0  9998
2 68458  97.4492 141.6654 0006809  38.8972 321.2750 15.17983553 14276
FSI-SAT 2
1 68792U 26088A   26183.35937166  .00005692  00000-0  38361-3 0  9992
2 68792  97.5089 332.2392 0015417  59.1249 301.1493 15.06958150 10578
OrigamiSat 2
1 68795U 26088D   26183.67994038  .00012706  00000-0  80275-3 0  9996
2 68795  97.5096 332.7357 0015258  30.8657 329.3466 15.09088960 10632
ARICA 2
1 68796U 26088E   26183.68347595  .00005199  00000-0  33592-3 0  9996
2 68796  97.5086 332.7173 0016210  30.7297 329.4877 15.08553012 10637
WASEDA-SAT-ZERO-II
1 68797U 26088F   26183.67674562  .00006829  00000-0  43673-3 0  9995
2 68797  97.5085 332.7247 0015962  30.6066 329.6090 15.08817503 10632
MANGARO-II-Piscus
1 68798U 26088G   26183.66603713  .00004056  00000-0  26019-3 0  9990
2 68798  97.5092 332.7478 0019707  32.7732 327.4715 15.08895973 10638
IO-86
1 40931U          25360.30710720  .00000000  00000-0  12800-3 0    00
2 40931   6.0006 332.5373 0012733 338.8432   8.1437 14.79075515    01
LILIUM-4                
1 71922C 26067AC  26089.50133053 -.00014632  00000+0 -74472-3 0    04
2 71922  97.4497  49.1617 0004341   5.9603 355.7042 15.16896692    16
